Regional Weather Roundup
Issued by NWS

Home | Current Version | Previous Version | Text Only | Print | Product List | Glossary On
Versions: 1 2 3 4 5 6 7 8 9 10 11 12 13 14 15 16 17 18 19 20 21 22 23 24 25 26 27 28 29 30 31 32 33 34 35 36 37 38 39 40 41 42 43 44 45 46 47 48 49 50
000
ASPQ40 PGUM 060610
RWRPQ
WEATHER ROUNDUP FOR THE MARIANAS AND MICRONESIA
NATIONAL WEATHER SERVICE TIYAN GU
400 PM CHST WED MAY 06 2015

GUZ001>004-060700-
MARIANA ISLANDS-

CITY           SKY/WX    TMP DP  RH WIND       PRES   REMARKS
GUAM AIRPORT   MOSUNNY   84  75  74 E15       29.78F HX  92
ANDERSEN AFB   MOSUNNY   84  75  74 E14       29.79F HX  92
ROTA AIRPORT   NOT AVBL
TINIAN AP      NOT AVBL
SAIPAN AP      CLOUDY    84  73  70 E10G21    29.79F HX  91

$$

PMZ161-060700-
REPUBLIC OF PALAU-

CITY           SKY/WX    TMP DP  RH WIND       PRES   REMARKS
KOROR AP       CLOUDY    84  77  79 W13G20    29.69S HX  94
KOROR WSO      NOT AVBL

$$

PMZ171>174-060700-
FEDERATED STATES OF MICRONESIA-

CITY           SKY/WX    TMP DP  RH WIND       PRES   REMARKS
YAP AIRPORT    NOT AVBL
CHUUK AP       NOT AVBL
POHNPEI AP     NOT AVBL
POHNPEI WSO    NOT AVBL
KOSRAE AP      NOT AVBL

$$

PMZ181-060700-
REPUBLIC OF THE MARSHALL ISLANDS-

CITY           SKY/WX    TMP DP  RH WIND       PRES   REMARKS
KWAJALEIN AP   PTSUNNY   86  72  62 E16       29.74S HX  92
MAJURO AP      CLOUDY    84  75  74 NE15      29.71R HX  92
MAJURO WSO     MOCLDY    84  77  79 NE10      29.72R HX  94

$$



USA.gov is the U.S. government's official web portal to all federal, state and local government web resources and services.